Tracking 28081 objects as of 27-Sep-2023
HD Live streaming from Space Station
objects crossing your sky now

CZ-2C DEB

Track CZ-2C DEB now!
10-day predictions


NORAD ID: 39204
Int'l Code: 2013-035C
Perigee: 627.7 km
Apogee: 739.0 km
Inclination: 98.3 °
Period: 98.3 minutes
Semi major axis: 7054 km
RCS: Unknown
Launch date: July 15, 2013
Source: People's Republic of China (PRC)
Launch site: Jiuquan Satellite Launch Center, China (JSC)

Note: This is SATELLITE DEBRIS
Your satellite tracking list
Your tracking list is empty




NASA's NSSDC Master Catalog

Two Line Element Set (TLE):
1 39204U 13035C   23269.89255046  .00012317  00000-0  21887-2 0  9993
2 39204  98.3086 141.3604 0078897 239.9318 119.4044 14.65272178542408
Source of the keplerian elements: AFSPC